Temperature
21 20 20 20 20 19 19 19 19 18 18 18 18 17 17 17 17 17 17 16 16 16 16 16 16 16 16 16 15 15 15 15 15 15 15 15 15 15 15 15 15 15 15
20 20 20 20 19 19 19 19 18 18 18 18 17 17 17 17 17 16 16 16 16 16 16 16 16 16 15 15 15 15 15 15 15 15 15 15 15 15 15 15 15 15 15
21 20 20 20 19 19 19 19 18 18 18 17 17 17 17 17 16 16 16 16 16 16 16 16 16 15 15 15 15 15 15 15 15 14 14 14 14 14 14 14 14 14 14
21 20 20 20 20 19 19 19 18 18 18 17 17 17 17 16 16 16 16 16 16 16 16 16 15 15 15 15 15 15 15 14 14 14 14 14 14 14 14 14 14 14 14
21 20 20 20 20 19 19 18 18 18 17 17 17 17 17 16 16 16 16 16 16 16 15 15 15 15 15 15 15 14 14 14 14 14 14 13 13 14 14 14 13 14 14
21 20 20 20 19 19 19 18 18 18 17 17 17 17 16 16 16 16 16 15 15 15 15 15 15 15 15 14 14 14 14 14 14 14 13 13 13 13 13 13 13 13 13
21 20 20 20 20 19 19 18 18 18 17 17 17 16 16 16 16 16 16 15 15 15 15 15 15 15 15 14 14 14 14 14 13 13 13 13 13 13 13 13 13 13 13
20 20 20 20 19 19 19 18 18 18 17 17 17 16 16 16 16 16 15 15 15 15 15 15 15 14 14 14 14 14 14 14 13 13 13 13 13 13 13 13 12 12 13
20 20 20 19 19 19 18 18 18 17 17 17 17 16 16 16 16 15 15 15 15 15 14 14 14 14 14 14 14 14 14 14 13 13 13 13 13 13 13 12 12 12 12
20 20 19 19 19 19 18 18 18 17 17 17 17 16 16 16 16 15 15 15 15 14 14 14 14 14 14 14 14 14 13 13 13 13 13 13 13 13 12 12 12 12 12
20 19 19 19 19 18 18 18 17 17 17 17 16 16 16 16 15 15 15 15 15 14 14 14 14 14 14 13 13 13 13 13 13 13 12 12 12 12 12 12 12 12 12
19 19 18 18 18 18 18 17 17 17 17 16 16 16 16 15 15 15 15 15 14 14 14 14 14 14 13 13 13 13 13 12 12 12 12 12 12 12 12 12 12 12 11
19 18 18 18 18 17 17 17 17 17 16 16 16 16 16 15 15 15 14 14 14 14 14 14 13 13 13 13 13 12 12 12 12 12 12 12 12 12 11 11 11 11 11
18 18 18 18 17 17 17 17 16 16 16 16 16 16 15 15 15 15 14 14 14 14 13 13 13 13 13 13 12 12 12 12 12 12 12 11 11 11 11 11 11 11 11
18 18 18 17 17 17 17 16 16 16 16 16 16 16 15 15 15 15 14 14 14 13 13 13 13 13 13 12 12 12 12 12 12 12 11 11 11 11 11 11 11 11 11
17 17 17 17 17 17 16 16 16 16 16 15 15 15 15 15 15 14 14 14 13 13 13 13 12 12 12 12 12 12 12 12 12 11 11 11 11 11 11 10 10 10 10
17 17 17 17 16 16 16 16 16 15 15 15 15 15 15 15 14 14 14 13 13 13 13 12 12 12 12 12 12 12 12 12 11 11 11 11 11 10 10 10 10 10 10
16 16 16 16 16 16 16 16 15 15 15 15 15 15 14 14 14 14 13 13 13 13 13 12 12 12 12 12 12 11 11 11 11 11 11 11 10 10 10 10 10 10 9
16 16 16 16 15 15 15 15 15 15 14 14 14 14 14 14 14 14 13 13 13 13 12 12 12 12 12 11 11 11 11 11 11 11 10 10 10 10 10 10 9 9 9
15 15 15 15 15 15 15 14 14 14 14 14 14 14 14 14 13 13 13 13 13 13 12 12 12 12 11 11 11 11 11 11 10 10 10 10 10 9 9 9 9 9 9
14 14 14 14 14 14 14 14 14 13 13 14 14 14 13 13 13 13 13 13 13 13 12 12 12 11 11 11 11 11 11 10 10 10 10 10 9 9 9 9 9 9 9
14 14 13 13 14 13 13 13 13 13 13 13 13 13 13 13 13 13 12 12 12 12 12 12 11 11 11 11 11 10 10 10 10 10 9 9 9 9 9 9 9 9 8
13 13 13 13 13 13 13 13 13 13 13 13 13 13 12 12 12 12 12 12 12 11 11 11 11 11 11 11 10 10 10 10 10 9 9 9 9 9 9 9 8 8 8
13 13 13 13 13 13 13 13 12 12 12 12 12 12 12 12 12 12 12 11 11 11 11 11 11 11 11 11 10 10 10 10 9 9 9 9 9 8 8 8 8 8 8
13 13 13 12 12 12 12 12 12 12 12 12 12 12 12 12 11 11 11 11 11 11 11 11 11 10 10 10 10 10 10 9 9 9 9 9 8 8 8 8 8 8 8
12 12 12 12 12 12 12 12 11 11 11 11 11 11 11 11 11 11 11 11 11 10 10 10 10 10 10 10 10 10 9 9 9 9 9 8 8 8 8 8 8 8 8
Wind_Speed
8 7 7 7 7 6 6 6 6 5 5 5 5 4 4 4 3 3 3 3 3 1 1 2 2 1 1 1 1 2 2 2 3 3 2 2 2 3 3 4 4 4 4
9 8 7 7 7 7 7 6 6 6 6 6 5 5 4 4 4 4 4 4 4 3 3 2 2 2 1 1 1 2 2 3 3 3 2 2 2 3 3 3 3 3 3
9 9 7 7 8 8 8 7 6 6 6 6 6 6 5 4 4 4 4 4 4 4 4 3 3 3 3 2 2 2 2 2 2 2 3 2 2 2 3 3 3 3 3
9 9 9 9 9 8 7 7 6 6 7 7 7 6 6 5 5 5 5 5 4 4 4 4 4 4 4 4 3 3 2 2 2 2 2 2 2 2 1 2 3 2 3
9 9 9 8 7 7 7 7 6 7 8 7 6 5 5 5 5 5 5 5 5 4 4 4 4 5 6 4 3 3 3 2 2 2 2 2 2 2 2 2 3 3 2
9 8 8 7 7 7 7 7 6 6 6 6 6 6 5 5 5 7 6 5 5 4 4 4 4 3 4 4 5 5 5 5 4 3 3 3 4 3 2 2 2 2 2
8 7 7 7 7 7 7 7 7 7 6 5 5 5 5 5 6 7 8 5 4 4 4 4 4 3 3 3 4 4 5 6 7 5 5 5 5 4 3 3 3 3 3
6 6 6 7 7 6 6 7 6 5 6 6 6 6 5 5 6 7 7 5 4 4 4 4 4 3 3 2 3 3 3 4 5 5 5 6 5 4 4 4 3 3 3
6 6 7 7 7 7 7 7 5 5 5 5 6 6 6 5 6 7 6 4 3 4 3 3 3 3 3 2 2 3 3 4 3 4 5 5 5 5 4 2 1 2 3
7 7 7 7 7 8 7 6 4 5 5 6 5 6 6 6 6 7 7 4 3 3 3 3 4 4 4 4 4 3 4 4 3 2 2 2 2 2 3 3 3 3 2
6 5 5 6 6 6 5 5 5 5 5 5 4 4 5 6 6 7 7 5 5 4 3 3 4 5 6 6 5 5 6 4 2 2 2 2 1 1 1 2 3 3 3
5 5 5 5 5 5 5 4 5 5 5 4 3 3 3 4 5 6 7 7 6 5 5 4 4 6 6 5 5 5 5 3 2 1 1 1 2 2 2 2 2 3 4
5 5 5 5 5 5 6 5 4 4 4 4 4 4 3 3 3 5 6 7 7 5 4 5 4 4 5 4 4 4 3 2 2 1 2 2 2 3 2 2 2 1 2
5 5 5 5 4 4 4 4 5 5 5 4 4 4 3 3 3 2 3 3 5 4 3 3 3 2 2 2 1 2 2 2 3 3 3 3 2 2 1 1 1 1 1
4 4 5 5 5 5 5 5 6 6 7 7 6 5 5 5 5 6 4 3 3 3 2 1 1 1 1 1 1 1 2 2 2 2 2 2 2 2 2 1 1 0 1
4 4 4 4 5 5 4 3 3 4 5 7 6 6 5 6 5 5 6 5 4 4 3 2 2 2 2 2 2 2 2 3 3 3 3 2 2 2 2 1 0 1 1
5 5 4 5 5 5 5 5 4 2 1 3 5 5 5 4 5 5 5 4 4 6 3 3 3 3 3 3 3 3 3 3 3 3 3 3 3 2 2 1 1 1 2
5 5 5 5 5 5 6 6 5 5 3 2 2 4 4 4 4 4 4 4 2 3 3 4 4 3 3 3 3 3 3 2 2 3 3 3 3 3 2 2 2 2 3
4 4 4 4 4 4 5 5 5 5 4 3 1 1 2 3 2 3 5 3 3 3 4 4 3 4 3 4 4 3 3 3 3 3 3 2 3 3 3 3 3 3 3
4 5 5 4 4 4 4 5 5 5 5 4 4 3 2 3 2 2 3 3 3 3 3 3 3 3 3 4 4 3 3 3 3 3 3 3 3 3 4 4 3 3 3
4 4 5 4 4 5 5 5 5 5 5 5 4 5 7 5 4 4 4 4 4 4 4 3 3 3 3 3 3 3 4 3 3 3 3 3 3 3 3 3 4 4 4
4 4 4 5 4 5 5 5 5 5 5 5 3 4 7 5 4 4 4 4 4 3 3 3 3 3 3 3 3 3 3 3 3 3 4 4 3 3 3 3 3 3 4
4 4 4 4 4 4 4 4 4 5 5 5 5 4 5 5 5 4 4 4 3 3 3 3 3 3 3 4 4 4 4 4 4 4 4 4 4 4 3 4 4 4 4
4 4 4 3 3 4 4 4 4 5 5 5 5 5 5 5 5 5 5 4 4 3 3 4 4 5 5 4 3 4 4 5 5 4 5 4 4 4 4 4 4 5 5
4 4 4 4 4 4 4 4 4 5 5 5 5 5 5 5 5 5 5 4 4 4 5 5 4 4 5 5 4 4 4 5 5 4 4 4 4 4 4 4 4 4 5
3 3 3 3 4 4 4 4 4 4 4 5 5 5 5 5 5 5 5 5 4 4 4 4 4 5 5 5 5 5 5 5 5 5 4 3 4 4 4 4 5 5 5
Wind_Direction
184 184 185 183 182 177 182 191 189 182 173 175 179 178 179 180 175 168 175 164 170 197 204 188 217 207 204 224 212 202 206 203 240 273 271 290 287 300 308 297 282 277 281
182 181 188 184 181 186 192 196 189 187 184 182 179 178 187 189 185 180 187 183 184 197 211 202 227 214 214 227 216 221 222 216 222 262 284 292 282 295 299 300 308 292 279
175 178 184 189 190 196 199 197 191 187 183 179 177 183 190 192 191 195 192 193 198 206 209 209 224 211 230 229 222 230 236 233 222 238 272 283 290 312 317 314 311 311 295
174 180 188 197 201 202 199 195 192 187 187 188 190 192 194 195 198 200 197 198 207 217 218 218 224 219 227 228 229 231 225 223 222 234 265 285 290 303 306 304 305 306 303
174 184 196 199 200 196 193 192 189 191 196 192 190 195 198 199 210 206 202 204 210 224 232 231 229 225 226 226 233 226 217 217 220 233 256 273 282 290 280 279 284 300 289
173 188 193 185 185 190 191 187 185 188 187 182 187 191 197 211 213 205 200 205 209 217 232 241 237 233 240 246 247 234 218 217 219 225 239 247 256 251 259 268 274 294 293
180 187 186 179 185 192 190 183 189 191 185 186 192 195 204 215 211 207 200 195 207 220 226 235 245 243 228 247 262 257 240 237 225 219 232 240 244 236 236 256 253 256 266
181 184 184 183 188 187 185 190 193 186 184 190 195 202 206 219 210 203 197 199 210 223 226 225 228 244 241 239 252 266 266 258 249 236 237 246 247 237 223 236 248 261 273
189 194 193 188 185 184 188 193 192 184 187 193 193 198 204 220 212 204 193 198 211 229 233 229 220 234 248 221 220 256 277 283 272 267 257 255 254 240 212 206 225 250 273
200 201 195 186 183 188 191 187 183 183 194 195 202 204 206 214 213 205 193 200 212 228 235 234 228 238 244 219 214 227 253 269 286 307 305 298 280 257 208 209 215 229 254
196 188 184 182 185 181 177 176 176 180 182 190 201 212 211 214 213 208 198 198 207 217 227 240 243 239 236 232 224 230 242 250 256 261 284 299 313 305 266 235 224 223 234
174 175 179 180 184 175 169 176 177 175 177 186 194 213 223 219 214 215 205 203 204 212 225 234 236 229 225 227 228 240 242 231 230 238 266 283 292 294 290 282 256 241 239
171 176 179 175 178 170 171 176 174 173 182 196 202 217 226 224 224 223 216 211 211 220 233 233 232 222 217 223 227 226 219 213 211 227 253 264 271 280 292 298 301 287 280
179 182 181 178 175 170 172 177 182 188 194 198 206 217 227 230 227 225 226 220 220 228 242 238 222 219 213 216 224 236 227 217 211 231 247 261 282 292 290 290 283 288 299
183 184 184 182 178 183 188 189 193 201 198 198 205 205 208 228 230 208 202 212 213 208 188 179 197 208 217 234 246 251 237 221 225 242 245 258 265 265 274 277 265 258 255
182 188 191 189 187 189 192 200 203 203 208 203 200 196 213 222 213 202 204 208 197 168 155 195 214 219 230 242 246 249 238 231 230 232 237 240 242 245 256 262 238 223 252
191 196 196 195 194 194 193 194 208 236 207 193 192 194 203 206 197 199 198 191 176 160 178 215 223 228 232 235 238 238 241 240 228 228 232 234 234 234 235 236 231 243 261
197 201 199 199 199 197 199 201 199 198 207 233 216 199 201 200 196 185 164 140 158 178 211 220 224 228 231 234 237 238 241 238 229 229 230 226 223 223 223 227 228 234 244
207 208 204 198 196 197 197 196 199 199 198 199 219 229 202 179 156 156 154 177 199 214 224 230 231 231 236 238 239 234 229 229 226 220 219 224 226 222 228 232 236 235 239
215 214 202 196 193 195 195 196 200 201 201 199 204 206 166 149 170 182 193 213 213 218 223 229 233 236 238 237 233 227 223 225 221 220 220 223 226 225 231 235 238 242 244
215 212 201 195 200 200 200 199 200 203 206 209 206 195 180 190 202 203 206 215 217 217 219 224 229 230 233 233 229 225 223 225 223 224 223 222 222 227 233 238 242 244 249
206 207 203 207 207 207 206 203 200 205 210 211 211 194 183 194 206 211 214 216 219 220 216 215 224 229 226 224 220 218 222 227 229 227 225 222 220 226 232 240 245 247 247
208 210 210 210 210 204 202 204 204 209 212 211 208 200 198 208 213 215 216 215 211 216 215 212 220 230 229 225 218 214 219 228 228 222 224 228 224 225 229 238 246 249 248
209 209 208 209 206 206 207 209 213 215 214 211 212 211 211 211 213 215 214 210 208 212 212 212 217 221 223 220 217 219 226 231 227 219 218 226 228 229 233 239 244 246 248
206 207 207 207 211 213 214 217 220 220 219 218 215 216 216 212 209 211 211 205 204 210 217 214 210 214 217 210 206 211 217 218 219 219 212 218 228 233 237 243 248 255 253
206 207 210 210 210 211 211 215 221 219 215 216 215 214 212 211 211 209 206 204 205 212 217 213 204 201 202 202 206 206 204 207 215 219 218 221 230 239 242 244 250 252 256
Height
1518 1521 1523 1526 1528 1530 1532 1534 1535 1537 1538 1539 1539 1540 1541 1541 1542 1542 1542 1543 1543 1543 1543 1543 1544 1544 1544 1544 1543 1543 1543 1543 1541 1541 1540 1539 1539 1538 1537 1537 1536 1535 1534
1514 1517 1520 1522 1524 1527 1529 1531 1532 1534 1535 1536 1537 1537 1538 1539 1540 1540 1540 1541 1541 1541 1541 1541 1541 1541 1541 1541 1541 1541 1540 1540 1539 1538 1537 1537 1536 1535 1534 1533 1533 1532 1531
1511 1514 1517 1519 1521 1523 1525 1528 1529 1530 1531 1533 1534 1534 1535 1536 1537 1538 1538 1538 1538 1538 1538 1539 1539 1539 1539 1539 1538 1538 1538 1537 1537 1536 1535 1534 1533 1532 1531 1531 1530 1529 1528
1507 1510 1512 1515 1517 1520 1522 1524 1526 1527 1528 1529 1530 1531 1533 1534 1534 1535 1535 1536 1536 1536 1536 1536 1536 1536 1536 1536 1536 1535 1535 1535 1534 1533 1532 1531 1530 1530 1529 1528 1527 1526 1525
1504 1506 1508 1511 1514 1517 1519 1521 1522 1524 1525 1526 1527 1528 1529 1530 1531 1532 1532 1533 1533 1533 1533 1533 1533 1533 1533 1533 1533 1533 1532 1532 1531 1530 1529 1528 1528 1527 1526 1525 1524 1523 1522
1500 1503 1506 1507 1510 1513 1515 1517 1519 1520 1522 1523 1524 1525 1526 1527 1528 1529 1529 1529 1530 1530 1530 1530 1530 1529 1530 1530 1530 1529 1529 1528 1528 1527 1526 1525 1524 1524 1523 1522 1521 1520 1519
1497 1500 1502 1503 1506 1509 1512 1513 1515 1517 1518 1520 1521 1522 1523 1524 1525 1525 1526 1526 1526 1526 1526 1526 1526 1526 1526 1526 1526 1525 1525 1525 1525 1524 1523 1522 1521 1521 1520 1519 1518 1518 1517
1495 1497 1499 1501 1503 1506 1508 1510 1511 1513 1515 1516 1517 1518 1519 1520 1521 1522 1522 1522 1522 1522 1522 1522 1522 1522 1522 1522 1522 1521 1521 1521 1520 1520 1519 1519 1518 1517 1517 1517 1516 1515 1514
1492 1493 1496 1498 1500 1502 1504 1506 1508 1510 1511 1512 1514 1515 1516 1516 1517 1518 1518 1518 1517 1517 1518 1518 1518 1518 1518 1518 1518 1517 1517 1517 1517 1517 1516 1515 1515 1514 1513 1513 1512 1512 1510
1489 1492 1494 1495 1497 1498 1500 1502 1504 1506 1507 1509 1510 1511 1511 1512 1513 1514 1514 1514 1513 1513 1514 1514 1514 1514 1514 1514 1514 1514 1513 1514 1514 1513 1513 1512 1512 1511 1510 1510 1509 1509 1508
1487 1489 1491 1492 1494 1496 1498 1500 1501 1503 1504 1505 1507 1507 1508 1508 1509 1510 1510 1510 1509 1509 1510 1510 1510 1510 1510 1510 1510 1510 1510 1511 1510 1510 1509 1509 1508 1508 1507 1507 1506 1506 1505
1485 1487 1488 1490 1492 1493 1495 1497 1499 1500 1501 1502 1503 1504 1504 1505 1505 1505 1506 1506 1506 1505 1505 1506 1506 1506 1506 1506 1507 1507 1507 1508 1507 1507 1506 1505 1505 1505 1504 1504 1503 1503 1502
1483 1484 1485 1487 1489 1490 1492 1494 1495 1496 1498 1499 1500 1500 1501 1502 1502 1502 1502 1503 1502 1502 1502 1502 1503 1502 1502 1503 1503 1503 1504 1504 1504 1503 1502 1502 1502 1502 1502 1501 1500 1499 1499
1479 1480 1482 1483 1485 1487 1488 1490 1491 1492 1494 1495 1496 1497 1498 1499 1499 1499 1499 1499 1499 1499 1498 1498 1499 1499 1499 1499 1499 1500 1500 1500 1500 1500 1500 1499 1499 1499 1498 1498 1497 1496 1496
1476 1477 1479 1480 1481 1483 1484 1486 1487 1489 1490 1491 1492 1494 1495 1495 1496 1496 1496 1496 1496 1496 1495 1495 1495 1495 1495 1496 1496 1496 1496 1496 1497 1497 1496 1496 1496 1495 1495 1494 1494 1493 1492
1472 1474 1475 1476 1477 1478 1480 1482 1484 1486 1487 1488 1489 1490 1491 1492 1493 1492 1493 1493 1493 1492 1492 1492 1492 1492 1492 1492 1492 1493 1493 1493 1492 1493 1492 1492 1492 1491 1491 1491 1491 1490 1489
1469 1470 1471 1472 1473 1474 1476 1477 1479 1481 1483 1484 1485 1486 1487 1489 1489 1489 1489 1489 1489 1489 1489 1489 1489 1489 1489 1490 1489 1490 1490 1490 1489 1489 1488 1488 1488 1488 1488 1488 1487 1487 1486
1466 1467 1467 1468 1469 1470 1472 1473 1474 1475 1477 1479 1481 1482 1484 1485 1486 1486 1486 1486 1486 1486 1486 1486 1486 1486 1487 1487 1487 1487 1487 1486 1486 1485 1485 1484 1484 1485 1484 1484 1484 1484 1483
1461 1462 1463 1464 1465 1466 1468 1469 1471 1471 1472 1475 1477 1478 1480 1481 1482 1482 1482 1482 1482 1482 1483 1483 1483 1483 1483 1484 1484 1483 1483 1483 1483 1482 1481 1481 1481 1481 1481 1481 1481 1481 1480
1457 1458 1459 1460 1461 1462 1463 1465 1466 1467 1468 1470 1472 1474 1476 1477 1477 1478 1478 1479 1479 1479 1480 1480 1480 1480 1480 1480 1480 1480 1480 1480 1479 1479 1478 1478 1478 1478 1477 1477 1477 1477 1476
1453 1454 1454 1455 1456 1458 1459 1460 1462 1464 1465 1466 1467 1469 1471 1472 1473 1474 1474 1475 1475 1476 1476 1477 1477 1477 1477 1477 1476 1476 1476 1476 1476 1475 1474 1474 1474 1474 1474 1473 1473 1473 1472
1449 1450 1450 1451 1452 1453 1454 1456 1457 1459 1460 1461 1462 1464 1466 1468 1469 1469 1470 1471 1471 1472 1473 1474 1474 1474 1474 1474 1473 1473 1473 1473 1472 1472 1471 1471 1470 1470 1470 1469 1469 1469 1469
1446 1446 1447 1447 1448 1449 1450 1451 1452 1454 1455 1456 1458 1459 1461 1462 1463 1464 1466 1467 1467 1468 1469 1470 1470 1471 1471 1471 1470 1470 1469 1469 1469 1468 1468 1467 1467 1467 1466 1466 1465 1465 1465
1441 1442 1442 1443 1444 1445 1445 1446 1448 1449 1450 1451 1453 1455 1456 1457 1458 1460 1461 1463 1463 1464 1465 1466 1467 1467 1467 1467 1467 1467 1466 1466 1465 1465 1464 1464 1463 1463 1463 1462 1462 1462 1461
1437 1438 1438 1439 1440 1440 1441 1442 1443 1444 1445 1446 1448 1449 1451 1452 1453 1455 1457 1458 1459 1460 1461 1462 1463 1463 1464 1464 1464 1463 1463 1463 1462 1461 1461 1460 1460 1459 1459 1459 1458 1458 1458
1434 1434 1435 1435 1436 1436 1437 1438 1438 1439 1440 1442 1443 1444 1446 1447 1448 1450 1452 1453 1454 1456 1457 1458 1459 1459 1460 1460 1459 1459 1459 1459 1458 1458 1457 1456 1456 1455 1455 1455 1454 1454 1454